Time,TemperatureF,DewpointF,PressureIn,WindDirection,WindDirectionDegrees,WindSpeedMPH,WindSpeedGustMPH,Humidity,HourlyPrecipIn,Conditions,Clouds,dailyrainin,SoftwareType,DateUTC
2013-01-08 00:03:00,43.3,40.6,31.02,NW,315,0.0,0.0,90,0.00,,OVC100,0.00,VWS V14.00,2013-01-08 08:03:00,
2013-01-08 00:08:00,43.3,40.6,31.00,NW,315,0.0,0.0,90,0.00,,OVC100,0.00,VWS V14.00,2013-01-08 08:08:00,
2013-01-08 00:13:00,42.9,40.2,31.01,NW,315,0.0,0.0,90,0.00,,OVC100,0.00,VWS V14.00,2013-01-08 08:13:00,
2013-01-08 00:18:00,42.9,40.2,31.01,NW,315,0.0,0.0,90,0.00,,OVC100,0.00,VWS V14.00,2013-01-08 08:18:00,
2013-01-08 00:23:00,42.9,40.5,31.01,NW,315,0.0,0.0,91,0.00,,OVC100,0.00,VWS V14.00,2013-01-08 08:23:00,
2013-01-08 00:28:00,42.9,40.5,31.01,North,0,0.0,0.0,91,0.00,,OVC100,0.00,VWS V14.00,2013-01-08 08:28:00,
2013-01-08 00:33:00,42.6,40.2,31.01,North,0,0.0,0.0,91,0.00,,OVC100,0.00,VWS V14.00,2013-01-08 08:33:00,
2013-01-08 00:38:00,42.6,40.2,31.02,NW,315,0.0,0.0,91,0.00,,OVC100,0.00,VWS V14.00,2013-01-08 08:38:00,
2013-01-08 00:43:00,42.8,40.4,31.01,NW,315,0.0,0.0,91,0.00,,OVC095,0.00,VWS V14.00,2013-01-08 08:43:00,
2013-01-08 00:48:00,42.9,40.5,31.00,NW,315,0.0,0.0,91,0.00,,OVC095,0.00,VWS V14.00,2013-01-08 08:48:00,
2013-01-08 00:53:00,43.1,40.7,31.00,NW,315,0.0,0.0,91,0.00,,OVC095,0.00,VWS V14.00,2013-01-08 08:53:00,
2013-01-08 00:58:00,43.1,40.7,31.00,NW,315,0.0,0.0,91,0.00,,OVC095,0.00,VWS V14.00,2013-01-08 08:58:00,
2013-01-08 01:03:00,43.1,40.7,31.00,NW,315,0.0,0.0,91,0.00,,OVC095,0.00,VWS V14.00,2013-01-08 09:03:00,
2013-01-08 01:08:00,43.1,40.7,31.00,NW,315,0.0,0.0,91,0.00,,OVC095,0.00,VWS V14.00,2013-01-08 09:08:00,
2013-01-08 01:13:00,43.3,40.8,31.01,NW,315,0.0,0.0,91,0.00,,OVC095,0.00,VWS V14.00,2013-01-08 09:13:00,
2013-01-08 01:18:00,43.3,40.8,31.01,North,0,0.0,0.0,91,0.00,,OVC095,0.00,VWS V14.00,2013-01-08 09:18:00,
2013-01-08 01:23:00,43.3,40.8,31.01,NW,315,0.0,0.0,91,0.00,,OVC095,0.00,VWS V14.00,2013-01-08 09:23:00,
2013-01-08 01:28:00,42.9,40.5,31.01,NW,315,0.0,0.0,91,0.00,,OVC095,0.00,VWS V14.00,2013-01-08 09:28:00,
2013-01-08 01:33:00,42.9,40.5,31.00,NW,315,0.0,0.0,91,0.00,,OVC095,0.00,VWS V14.00,2013-01-08 09:33:00,
2013-01-08 01:38:00,42.9,40.5,31.00,NW,315,0.0,0.0,91,0.00,,OVC095,0.00,VWS V14.00,2013-01-08 09:38:00,
2013-01-08 01:43:00,42.9,40.5,31.00,NW,315,0.0,0.0,91,0.00,,OVC100,0.00,VWS V14.00,2013-01-08 09:43:00,
2013-01-08 01:48:00,42.9,40.5,31.01,NW,315,0.0,0.0,91,0.00,,OVC100,0.00,VWS V14.00,2013-01-08 09:48:00,
2013-01-08 01:53:00,43.1,40.7,31.01,NW,315,0.0,0.0,91,0.00,,OVC100,0.00,VWS V14.00,2013-01-08 09:53:00,
2013-01-08 01:58:00,43.1,40.7,31.01,NW,315,0.0,0.0,91,0.00,,OVC100,0.00,VWS V14.00,2013-01-08 09:58:00,
2013-01-08 02:03:00,43.1,40.7,31.01,North,0,0.0,0.0,91,0.00,,OVC100,0.00,VWS V14.00,2013-01-08 10:03:00,
2013-01-08 02:08:00,43.1,40.7,31.00,North,0,0.0,0.0,91,0.00,,,0.00,VWS V14.00,2013-01-08 10:08:00,
2013-01-08 02:13:00,42.9,40.5,31.00,NW,315,0.0,0.0,91,0.00,,,0.00,VWS V14.00,2013-01-08 10:13:00,
2013-01-08 02:18:00,43.1,40.7,31.00,NW,315,0.0,0.0,91,0.00,,,0.00,VWS V14.00,2013-01-08 10:18:00,
2013-01-08 02:23:00,43.1,40.7,31.00,NW,315,0.0,0.0,91,0.00,,,0.00,VWS V14.00,2013-01-08 10:23:00,
2013-01-08 02:28:00,42.9,40.5,31.00,NW,315,0.0,0.0,91,0.00,,,0.00,VWS V14.00,2013-01-08 10:28:00,
2013-01-08 02:33:00,42.9,40.5,31.00,North,0,0.0,0.0,91,0.00,,,0.00,VWS V14.00,2013-01-08 10:33:00,
2013-01-08 02:38:00,42.9,40.5,31.00,NW,315,0.0,0.0,91,0.00,,,0.00,VWS V14.00,2013-01-08 10:38:00,
2013-01-08 02:43:00,42.9,40.5,30.99,NW,315,0.0,0.0,91,0.00,,,0.00,VWS V14.00,2013-01-08 10:43:00,
2013-01-08 02:48:00,42.9,40.5,31.00,NW,315,0.0,0.0,91,0.00,,,0.00,VWS V14.00,2013-01-08 10:48:00,
2013-01-08 02:53:00,42.9,40.5,30.99,NW,315,0.0,0.0,91,0.00,,,0.00,VWS V14.00,2013-01-08 10:53:00,
2013-01-08 02:58:00,42.9,40.5,30.99,NW,315,0.0,0.0,91,0.00,,,0.00,VWS V14.00,2013-01-08 10:58:00,
2013-01-08 03:03:00,42.9,40.5,30.98,NW,315,0.0,0.0,91,0.00,,,0.00,VWS V14.00,2013-01-08 11:03:00,
2013-01-08 03:08:00,42.9,40.5,30.98,NW,315,0.0,0.0,91,0.00,,,0.00,VWS V14.00,2013-01-08 11:08:00,
2013-01-08 03:13:00,42.9,40.5,30.99,NW,315,0.0,0.0,91,0.00,,,0.00,VWS V14.00,2013-01-08 11:13:00,
2013-01-08 03:18:00,42.8,40.4,30.99,NW,315,0.0,0.0,91,0.00,,,0.00,VWS V14.00,2013-01-08 11:18:00,
2013-01-08 03:23:00,42.8,40.4,30.98,NW,315,0.0,0.0,91,0.00,,,0.00,VWS V14.00,2013-01-08 11:23:00,
2013-01-08 03:28:00,42.9,40.5,30.98,NW,315,0.0,0.0,91,0.00,,,0.00,VWS V14.00,2013-01-08 11:28:00,
2013-01-08 03:33:00,42.9,40.5,30.98,NW,315,0.0,0.0,91,0.00,,,0.00,VWS V14.00,2013-01-08 11:33:00,
2013-01-08 03:38:00,42.9,40.5,30.98,North,0,0.0,0.0,91,0.00,,,0.00,VWS V14.00,2013-01-08 11:38:00,
2013-01-08 03:43:00,42.9,40.5,30.98,NW,315,0.0,0.0,91,0.00,,,0.00,VWS V14.00,2013-01-08 11:43:00,
2013-01-08 03:48:00,42.9,40.5,30.98,NW,315,0.0,0.0,91,0.00,,,0.00,VWS V14.00,2013-01-08 11:48:00,
2013-01-08 03:53:00,42.9,40.5,30.97,NW,315,0.0,0.0,91,0.00,,,0.00,VWS V14.00,2013-01-08 11:53:00,
2013-01-08 03:58:00,42.9,40.5,30.97,NW,315,0.0,0.0,91,0.00,,,0.00,VWS V14.00,2013-01-08 11:58:00,
2013-01-08 04:03:00,42.9,40.5,30.97,NW,315,0.0,0.0,91,0.00,,,0.00,VWS V14.00,2013-01-08 12:03:00,
2013-01-08 04:08:00,42.8,40.4,30.96,NW,315,0.0,0.0,91,0.00,,,0.00,VWS V14.00,2013-01-08 12:08:00,
2013-01-08 04:13:00,42.6,40.2,30.95,NW,315,0.0,0.0,91,0.00,,,0.00,VWS V14.00,2013-01-08 12:13:00,
2013-01-08 04:18:00,42.8,40.4,30.95,NW,315,0.0,0.0,91,0.00,,,0.00,VWS V14.00,2013-01-08 12:18:00,
2013-01-08 04:23:00,42.9,40.5,30.95,NW,315,0.0,0.0,91,0.00,,-RA,0.00,VWS V14.00,2013-01-08 12:23:00,
2013-01-08 04:28:00,42.8,40.6,30.95,NW,315,0.0,0.0,92,0.00,,-RA,0.00,VWS V14.00,2013-01-08 12:28:00,
2013-01-08 04:33:00,42.9,40.7,30.94,NW,315,0.0,0.0,92,0.00,,-RA,0.00,VWS V14.00,2013-01-08 12:33:00,
2013-01-08 04:38:00,42.9,40.7,30.94,NE,45,0.0,0.0,92,0.00,,-RA,0.00,VWS V14.00,2013-01-08 12:38:00,
2013-01-08 04:43:00,42.9,40.7,30.94,NE,45,0.0,0.0,92,0.00,,-RA,0.00,VWS V14.00,2013-01-08 12:43:00,
2013-01-08 04:48:00,42.9,40.7,30.94,NE,45,0.0,0.0,92,0.00,,-RA,0.00,VWS V14.00,2013-01-08 12:48:00,
2013-01-08 04:53:00,42.9,40.7,30.94,NE,45,0.0,0.0,92,0.00,,-RA,0.00,VWS V14.00,2013-01-08 12:53:00,
2013-01-08 04:58:00,43.1,40.9,30.93,ESE,112,1.1,1.1,92,0.00,,-RA,0.00,VWS V14.00,2013-01-08 12:58:00,
2013-01-08 05:03:00,43.1,40.9,30.93,ESE,112,0.0,0.0,92,0.00,,-RA,0.00,VWS V14.00,2013-01-08 13:03:00,
2013-01-08 05:08:00,43.3,41.1,30.92,North,0,0.0,0.0,92,0.00,,-RA,0.00,VWS V14.00,2013-01-08 13:08:00,
2013-01-08 05:13:00,43.3,41.1,30.92,ESE,112,0.0,0.0,92,0.00,,-RA,0.00,VWS V14.00,2013-01-08 13:13:00,
2013-01-08 05:18:00,43.3,41.1,30.92,ESE,112,0.0,0.0,92,0.00,,-RA,0.00,VWS V14.00,2013-01-08 13:18:00,
2013-01-08 05:23:00,43.5,41.3,30.92,SE,135,1.7,1.7,92,0.00,,-RA,0.00,VWS V14.00,2013-01-08 13:23:00,
2013-01-08 05:28:00,43.5,41.3,30.91,SE,135,0.0,0.0,92,0.00,,-RA,0.00,VWS V14.00,2013-01-08 13:28:00,
2013-01-08 05:33:00,43.5,41.3,30.92,SE,135,0.0,0.0,92,0.00,,-RA,0.00,VWS V14.00,2013-01-08 13:33:00,
2013-01-08 05:38:00,43.5,41.3,30.92,SE,135,0.0,0.0,92,0.00,,-RA,0.00,VWS V14.00,2013-01-08 13:38:00,
2013-01-08 05:43:00,43.5,41.3,30.91,SE,135,0.0,0.0,92,0.00,,-RA,0.00,VWS V14.00,2013-01-08 13:43:00,
2013-01-08 05:48:00,43.5,41.3,30.91,ESE,112,5.5,5.5,92,0.00,,-RA,0.00,VWS V14.00,2013-01-08 13:48:00,
2013-01-08 05:53:00,43.7,41.5,30.91,SE,135,2.2,2.2,92,0.00,,-RA,0.00,VWS V14.00,2013-01-08 13:53:00,
2013-01-08 05:58:00,43.7,41.5,30.90,SE,135,2.2,2.2,92,0.00,,-RA,0.00,VWS V14.00,2013-01-08 13:58:00,
2013-01-08 06:03:00,43.7,41.5,30.90,North,0,0.0,5.8,92,0.00,,-RA,0.00,VWS V14.00,2013-01-08 14:03:00,
2013-01-08 06:08:00,43.7,41.5,30.90,SE,135,0.0,0.0,92,0.00,,-RA,0.00,VWS V14.00,2013-01-08 14:08:00,
2013-01-08 06:13:00,43.7,41.5,30.90,SSE,158,3.3,3.3,92,0.00,,-RA,0.00,VWS V14.00,2013-01-08 14:13:00,
2013-01-08 06:18:00,43.8,41.6,30.89,SE,135,0.6,0.6,92,0.00,,-RA,0.00,VWS V14.00,2013-01-08 14:18:00,
2013-01-08 06:23:00,43.8,41.6,30.90,SE,135,3.5,3.5,92,0.00,,-RA,0.00,VWS V14.00,2013-01-08 14:23:00,
2013-01-08 06:28:00,43.8,41.6,30.90,ESE,112,0.0,0.0,92,0.00,,-RA,0.00,VWS V14.00,2013-01-08 14:28:00,
2013-01-08 06:33:00,43.8,41.6,30.90,ESE,112,0.0,0.0,92,0.00,,-RA,0.00,VWS V14.00,2013-01-08 14:33:00,
2013-01-08 06:38:00,43.8,41.6,30.90,ESE,112,0.0,0.0,92,0.00,,-RA,0.00,VWS V14.00,2013-01-08 14:38:00,
2013-01-08 06:43:00,43.8,41.6,30.89,ESE,112,0.0,0.0,92,0.00,,-RA,0.00,VWS V14.00,2013-01-08 14:43:00,
2013-01-08 06:48:00,43.8,41.6,30.89,ESE,112,0.0,0.0,92,0.00,,-RA,0.00,VWS V14.00,2013-01-08 14:48:00,
2013-01-08 06:53:00,43.8,41.6,30.89,SE,135,0.0,0.0,92,0.00,,-RA,0.00,VWS V14.00,2013-01-08 14:53:00,
2013-01-08 06:58:00,43.8,41.6,30.89,SE,135,0.0,0.0,92,0.00,,-RA,0.00,VWS V14.00,2013-01-08 14:58:00,
2013-01-08 07:03:00,43.8,41.6,30.89,SE,135,0.0,0.0,92,0.00,,-RA,0.00,VWS V14.00,2013-01-08 15:03:00,
2013-01-08 07:08:00,43.8,41.6,30.88,SE,135,4.0,4.0,92,0.00,,-RA,0.00,VWS V14.00,2013-01-08 15:08:00,
2013-01-08 07:13:00,43.8,41.6,30.89,SE,135,0.0,0.0,92,0.00,,-RA,0.00,VWS V14.00,2013-01-08 15:13:00,
2013-01-08 07:18:00,44.0,41.8,30.89,SE,135,0.0,0.0,92,0.00,,-RA,0.00,VWS V14.00,2013-01-08 15:18:00,
2013-01-08 07:23:00,43.8,41.6,30.88,SE,135,0.0,0.0,92,0.00,,-RA,0.00,VWS V14.00,2013-01-08 15:23:00,
2013-01-08 07:28:00,43.8,41.6,30.88,SE,135,3.1,3.1,92,0.00,,-RA,0.00,VWS V14.00,2013-01-08 15:28:00,
2013-01-08 07:33:00,43.8,41.6,30.88,SE,135,4.0,4.0,92,0.00,,-RA,0.00,VWS V14.00,2013-01-08 15:33:00,
2013-01-08 07:38:00,44.0,41.8,30.88,SE,135,1.3,1.3,92,0.00,,-RA,0.00,VWS V14.00,2013-01-08 15:38:00,
2013-01-08 07:43:00,44.0,41.8,30.88,SE,135,0.0,0.0,92,0.00,,,0.00,VWS V14.00,2013-01-08 15:43:00,
2013-01-08 07:48:00,44.0,41.8,30.88,SE,135,0.8,0.8,92,0.00,,,0.00,VWS V14.00,2013-01-08 15:48:00,
2013-01-08 07:53:00,44.2,42.0,30.88,SE,135,0.0,0.0,92,0.00,,,0.00,VWS V14.00,2013-01-08 15:53:00,
2013-01-08 07:58:00,44.2,42.0,30.88,SE,135,0.0,0.0,92,0.00,,,0.00,VWS V14.00,2013-01-08 15:58:00,
2013-01-08 08:03:00,44.4,42.2,30.88,SE,135,3.1,4.6,92,0.00,,,0.00,VWS V14.00,2013-01-08 16:03:00,
2013-01-08 08:08:00,44.4,42.2,30.88,SE,135,0.0,0.0,92,0.00,,,0.00,VWS V14.00,2013-01-08 16:08:00,
2013-01-08 08:13:00,44.7,42.5,30.88,SE,135,0.0,0.0,92,0.00,,,0.00,VWS V14.00,2013-01-08 16:13:00,
2013-01-08 08:18:00,44.7,42.5,30.89,SE,135,0.0,0.0,92,0.00,,,0.00,VWS V14.00,2013-01-08 16:18:00,
2013-01-08 08:23:00,44.9,42.7,30.89,SE,135,0.0,0.0,92,0.00,,,0.00,VWS V14.00,2013-01-08 16:23:00,
2013-01-08 08:28:00,44.9,42.7,30.89,SE,135,0.0,0.0,92,0.00,,,0.00,VWS V14.00,2013-01-08 16:28:00,
2013-01-08 08:33:00,45.1,42.9,30.89,SE,135,0.0,0.0,92,0.00,,,0.00,VWS V14.00,2013-01-08 16:33:00,
2013-01-08 08:38:00,45.1,42.9,30.89,SE,135,0.0,0.0,92,0.00,,,0.00,VWS V14.00,2013-01-08 16:38:00,
2013-01-08 08:43:00,45.1,42.9,30.89,SE,135,0.0,0.0,92,0.00,,,0.00,VWS V14.00,2013-01-08 16:43:00,
2013-01-08 08:48:00,45.3,43.1,30.89,SE,135,0.0,0.0,92,0.00,,,0.00,VWS V14.00,2013-01-08 16:48:00,
2013-01-08 08:53:00,45.1,42.9,30.89,SE,135,0.0,0.0,92,0.00,,,0.00,VWS V14.00,2013-01-08 16:53:00,
2013-01-08 08:58:00,45.3,43.1,30.89,SE,135,0.0,0.0,92,0.00,,,0.00,VWS V14.00,2013-01-08 16:58:00,
2013-01-08 09:03:00,45.5,43.3,30.89,North,0,0.0,0.0,92,0.00,,,0.00,VWS V14.00,2013-01-08 17:03:00,
2013-01-08 09:08:00,45.5,43.3,30.89,SE,135,0.0,0.0,92,0.00,,,0.00,VWS V14.00,2013-01-08 17:08:00,
2013-01-08 09:13:00,45.6,43.7,30.90,SE,135,0.0,0.0,93,0.00,,,0.00,VWS V14.00,2013-01-08 17:13:00,
2013-01-08 09:18:00,45.6,43.7,30.89,North,0,0.0,0.0,93,0.00,,,0.00,VWS V14.00,2013-01-08 17:18:00,
2013-01-08 09:23:00,45.6,43.7,30.89,SE,135,0.0,0.0,93,0.00,,,0.00,VWS V14.00,2013-01-08 17:23:00,
2013-01-08 09:28:00,46.0,44.1,30.89,SE,135,0.0,0.0,93,0.00,,,0.00,VWS V14.00,2013-01-08 17:28:00,
2013-01-08 09:33:00,46.0,44.1,30.89,SE,135,0.0,0.0,93,0.00,,,0.00,VWS V14.00,2013-01-08 17:33:00,
2013-01-08 09:37:00,46.2,44.3,30.89,SE,135,0.0,0.0,93,0.00,,,0.00,VWS V14.00,2013-01-08 17:37:00,
2013-01-08 09:42:00,46.5,44.6,30.89,South,180,1.1,1.1,93,0.00,,-RA,0.00,VWS V14.00,2013-01-08 17:42:00,
2013-01-08 09:47:00,46.7,44.8,30.89,SSE,158,3.1,3.1,93,0.00,,-RA,0.00,VWS V14.00,2013-01-08 17:47:00,
2013-01-08 09:52:00,47.1,45.2,30.88,SSE,158,7.1,7.1,93,0.00,,-RA,0.00,VWS V14.00,2013-01-08 17:52:00,
2013-01-08 09:57:00,47.3,45.4,30.89,SSE,158,0.0,0.0,93,0.00,,-RA,0.00,VWS V14.00,2013-01-08 17:57:00,
2013-01-08 10:02:00,47.3,45.4,30.89,South,180,5.5,5.5,93,0.00,,-RA,0.00,VWS V14.00,2013-01-08 18:02:00,
2013-01-08 10:07:00,47.4,45.5,30.89,SSE,158,3.5,3.5,93,0.00,,-RA,0.00,VWS V14.00,2013-01-08 18:07:00,
2013-01-08 10:12:00,47.6,45.7,30.89,SSE,158,3.3,6.9,93,0.00,,-RA,0.00,VWS V14.00,2013-01-08 18:12:00,
2013-01-08 10:17:00,48.0,46.1,30.89,SSE,158,3.5,3.5,93,0.00,,-RA,0.00,VWS V14.00,2013-01-08 18:17:00,
2013-01-08 10:22:00,48.0,46.1,30.89,SSE,158,8.0,13.1,93,0.00,,-RA,0.00,VWS V14.00,2013-01-08 18:22:00,
2013-01-08 10:27:00,48.0,46.1,30.89,SSE,158,10.7,10.7,93,0.00,,-RA,0.00,VWS V14.00,2013-01-08 18:27:00,
2013-01-08 10:32:00,48.2,46.3,30.89,SSE,158,10.2,10.2,93,0.00,,-RA,0.00,VWS V14.00,2013-01-08 18:32:00,
2013-01-08 10:37:00,48.5,46.6,30.89,South,180,3.3,3.3,93,0.00,,-RA,0.00,VWS V14.00,2013-01-08 18:37:00,
2013-01-08 10:42:00,48.7,46.5,30.89,SSE,158,7.1,7.1,92,0.00,,OVC012,0.00,VWS V14.00,2013-01-08 18:42:00,
2013-01-08 10:47:00,48.9,46.7,30.89,South,180,16.5,16.5,92,0.00,,OVC012,0.00,VWS V14.00,2013-01-08 18:47:00,
2013-01-08 10:52:00,49.1,46.6,30.88,SSE,158,7.6,14.9,91,0.00,,OVC012,0.00,VWS V14.00,2013-01-08 18:52:00,
2013-01-08 10:57:00,49.1,46.3,30.89,North,0,0.0,8.0,90,0.00,,OVC012,0.00,VWS V14.00,2013-01-08 18:57:00,
2013-01-08 11:02:00,49.1,46.3,30.88,SSW,202,18.1,18.1,90,0.00,,OVC012,0.00,VWS V14.00,2013-01-08 19:02:00,
2013-01-08 11:07:00,49.6,46.5,30.88,South,180,12.3,12.3,89,0.00,,OVC012,0.00,VWS V14.00,2013-01-08 19:07:00,
2013-01-08 11:12:00,49.8,46.4,30.87,SSE,158,12.0,12.0,88,0.00,,OVC012,0.00,VWS V14.00,2013-01-08 19:12:00,
2013-01-08 11:17:00,49.8,46.4,30.88,SSE,158,13.6,13.6,88,0.00,,OVC012,0.00,VWS V14.00,2013-01-08 19:17:00,
2013-01-08 11:22:00,49.8,46.4,30.88,South,180,6.7,6.7,88,0.00,,OVC012,0.00,VWS V14.00,2013-01-08 19:22:00,
2013-01-08 11:27:00,49.8,46.4,30.88,South,180,11.8,11.8,88,0.00,,OVC012,0.00,VWS V14.00,2013-01-08 19:27:00,
2013-01-08 11:32:00,49.6,46.2,30.88,SSE,158,14.9,14.9,88,0.00,,OVC012,0.00,VWS V14.00,2013-01-08 19:32:00,
2013-01-08 11:37:00,49.6,46.5,30.88,SE,135,1.3,1.3,89,0.00,,OVC012,0.00,VWS V14.00,2013-01-08 19:37:00,
2013-01-08 11:42:00,49.6,46.5,30.87,SSE,158,7.3,7.3,89,0.00,,OVC016,0.00,VWS V14.00,2013-01-08 19:42:00,
2013-01-08 11:47:00,49.6,46.5,30.87,South,180,17.2,17.2,89,0.00,,OVC016,0.00,VWS V14.00,2013-01-08 19:47:00,
2013-01-08 11:52:00,49.8,46.7,30.87,SSE,158,12.3,12.3,89,0.00,,OVC016,0.00,VWS V14.00,2013-01-08 19:52:00,
2013-01-08 11:57:00,50.0,46.9,30.86,SSE,158,8.7,8.7,89,0.00,,OVC016,0.00,VWS V14.00,2013-01-08 19:57:00,
2013-01-08 12:02:00,50.1,47.0,30.86,SSE,158,8.0,8.0,89,0.00,,OVC016,0.00,VWS V14.00,2013-01-08 20:02:00,
2013-01-08 12:07:00,50.1,46.7,30.87,SSE,158,12.5,12.5,88,0.00,,OVC016,0.00,VWS V14.00,2013-01-08 20:07:00,
2013-01-08 12:12:00,50.3,46.9,30.86,South,180,14.5,14.5,88,0.00,,OVC016,0.00,VWS V14.00,2013-01-08 20:12:00,
2013-01-08 12:17:00,50.3,46.9,30.86,North,0,0.0,0.0,88,0.00,,OVC016,0.00,VWS V14.00,2013-01-08 20:17:00,
2013-01-08 12:22:00,50.5,47.1,30.86,SSE,158,8.7,8.7,88,0.00,,OVC016,0.00,VWS V14.00,2013-01-08 20:22:00,
2013-01-08 12:27:00,50.5,47.1,30.86,SSE,158,8.5,8.5,88,0.00,,OVC016,0.00,VWS V14.00,2013-01-08 20:27:00,
2013-01-08 12:32:00,50.5,46.8,30.85,SSE,158,8.7,8.7,87,0.00,,OVC016,0.00,VWS V14.00,2013-01-08 20:32:00,
2013-01-08 12:37:00,50.5,46.8,30.85,SSE,158,6.7,6.7,87,0.00,,OVC016,0.00,VWS V14.00,2013-01-08 20:37:00,
2013-01-08 12:42:00,50.7,47.0,30.85,SSE,158,7.3,7.3,87,0.00,,-RA,0.00,VWS V14.00,2013-01-08 20:42:00,
2013-01-08 12:47:00,50.5,46.8,30.85,South,180,10.7,10.7,87,0.00,,-RA,0.00,VWS V14.00,2013-01-08 20:47:00,
2013-01-08 12:52:00,50.7,47.0,30.85,South,180,11.8,11.8,87,0.00,,-RA,0.00,VWS V14.00,2013-01-08 20:52:00,
2013-01-08 12:57:00,50.3,46.9,30.85,SSE,158,7.1,7.1,88,0.00,,-RA,0.00,VWS V14.00,2013-01-08 20:57:00,
2013-01-08 13:02:00,50.3,46.9,30.84,SSE,158,6.2,6.2,88,0.00,,-RA,0.00,VWS V14.00,2013-01-08 21:02:00,
2013-01-08 13:07:00,50.3,46.9,30.84,South,180,14.7,14.7,88,0.00,,-RA,0.00,VWS V14.00,2013-01-08 21:07:00,
2013-01-08 13:12:00,50.3,46.9,30.84,South,180,14.3,14.3,88,0.00,,-RA,0.00,VWS V14.00,2013-01-08 21:12:00,
2013-01-08 13:17:00,50.1,46.7,30.84,South,180,12.3,12.3,88,0.00,,-RA,0.00,VWS V14.00,2013-01-08 21:17:00,
2013-01-08 13:22:00,50.3,46.9,30.84,South,180,10.9,10.9,88,0.00,,-RA,0.00,VWS V14.00,2013-01-08 21:22:00,
2013-01-08 13:27:00,50.5,47.1,30.84,North,0,0.0,0.0,88,0.00,,-RA,0.00,VWS V14.00,2013-01-08 21:27:00,
2013-01-08 13:32:00,50.3,46.9,30.84,SSW,202,16.1,16.1,88,0.00,,-RA,0.00,VWS V14.00,2013-01-08 21:32:00,
2013-01-08 13:37:00,50.3,46.9,30.84,South,180,15.2,18.3,88,0.00,,-RA,0.00,VWS V14.00,2013-01-08 21:37:00,
2013-01-08 13:42:00,50.5,47.1,30.84,South,180,12.0,12.0,88,0.00,,-RA,0.00,VWS V14.00,2013-01-08 21:42:00,
2013-01-08 13:47:00,50.5,47.1,30.84,North,0,0.0,8.9,88,0.00,,-RA,0.00,VWS V14.00,2013-01-08 21:47:00,
2013-01-08 13:52:00,50.5,47.1,30.84,South,180,10.2,10.2,88,0.00,,-RA,0.00,VWS V14.00,2013-01-08 21:52:00,
2013-01-08 13:57:00,50.7,47.3,30.83,South,180,21.4,21.4,88,0.00,,-RA,0.00,VWS V14.00,2013-01-08 21:57:00,
2013-01-08 14:02:00,50.7,47.3,30.83,North,0,0.0,0.0,88,0.00,,-RA,0.00,VWS V14.00,2013-01-08 22:02:00,
2013-01-08 14:07:00,50.7,47.0,30.83,SSE,158,12.7,12.7,87,0.00,,-RA,0.00,VWS V14.00,2013-01-08 22:07:00,
2013-01-08 14:12:00,50.7,47.0,30.83,SE,135,15.6,15.6,87,0.00,,-RA,0.00,VWS V14.00,2013-01-08 22:12:00,
2013-01-08 14:17:00,51.0,47.3,30.83,South,180,11.8,11.8,87,0.00,,-RA,0.00,VWS V14.00,2013-01-08 22:17:00,
2013-01-08 14:22:00,51.4,47.4,30.83,South,180,20.8,20.8,86,0.00,,-RA,0.00,VWS V14.00,2013-01-08 22:22:00,
2013-01-08 14:27:00,51.6,47.6,30.82,SSE,158,15.8,15.8,86,0.00,,-RA,0.00,VWS V14.00,2013-01-08 22:27:00,
2013-01-08 14:32:00,51.6,47.6,30.82,SSE,158,11.1,11.1,86,0.00,,-RA,0.00,VWS V14.00,2013-01-08 22:32:00,
2013-01-08 14:37:00,51.4,47.4,30.82,SSE,158,14.7,14.7,86,0.00,,-RA,0.00,VWS V14.00,2013-01-08 22:37:00,
2013-01-08 14:42:00,51.6,47.6,30.82,SE,135,11.1,11.1,86,0.00,,OVC016,0.00,VWS V14.00,2013-01-08 22:42:00,
2013-01-08 14:47:00,51.6,47.2,30.82,SSE,158,14.7,24.3,85,0.00,,OVC016,0.00,VWS V14.00,2013-01-08 22:47:00,
2013-01-08 14:52:00,51.6,47.2,30.82,North,0,0.0,0.0,85,0.00,,OVC016,0.00,VWS V14.00,2013-01-08 22:52:00,
2013-01-08 14:57:00,51.6,47.2,30.83,SSE,158,15.6,15.6,85,0.00,,OVC016,0.00,VWS V14.00,2013-01-08 22:57:00,
2013-01-08 15:02:00,51.6,47.2,30.83,South,180,13.8,13.8,85,0.00,,OVC016,0.00,VWS V14.00,2013-01-08 23:02:00,
2013-01-08 15:07:00,51.6,47.2,30.83,South,180,13.8,14.0,85,0.00,,OVC016,0.00,VWS V14.00,2013-01-08 23:07:00,
2013-01-08 15:12:00,51.6,47.2,30.82,SSE,158,10.5,10.9,85,0.00,,OVC016,0.00,VWS V14.00,2013-01-08 23:12:00,
2013-01-08 15:17:00,51.6,47.2,30.82,SSE,158,16.3,16.3,85,0.00,,OVC016,0.00,VWS V14.00,2013-01-08 23:17:00,
2013-01-08 15:22:00,51.6,47.2,30.82,SSE,158,13.8,13.8,85,0.00,,OVC016,0.00,VWS V14.00,2013-01-08 23:22:00,
2013-01-08 15:27:00,51.6,47.6,30.82,South,180,15.4,15.4,86,0.00,,OVC016,0.00,VWS V14.00,2013-01-08 23:27:00,
2013-01-08 15:32:00,51.4,47.4,30.82,SSE,158,14.3,14.7,86,0.00,,OVC016,0.00,VWS V14.00,2013-01-08 23:32:00,
2013-01-08 15:37:00,51.4,47.4,30.82,South,180,14.7,14.7,86,0.00,,OVC016,0.00,VWS V14.00,2013-01-08 23:37:00,
2013-01-08 15:42:00,51.2,47.2,30.81,SSE,158,12.9,12.9,86,0.00,,OVC023,0.00,VWS V14.00,2013-01-08 23:42:00,
2013-01-08 15:47:00,51.0,47.3,30.82,SSE,158,21.6,21.6,87,0.00,,OVC023,0.00,VWS V14.00,2013-01-08 23:47:00,
2013-01-08 15:52:00,51.0,47.3,30.82,South,180,20.3,20.3,87,0.00,,OVC023,0.00,VWS V14.00,2013-01-08 23:52:00,
2013-01-08 15:57:00,50.9,47.2,30.82,South,180,11.8,11.8,87,0.00,,OVC023,0.00,VWS V14.00,2013-01-08 23:57:00,
2013-01-08 16:02:00,50.7,47.0,30.82,South,180,12.7,12.7,87,0.00,,OVC023,0.00,VWS V14.00,2013-01-09 00:02:00,
2013-01-08 16:07:00,50.7,47.3,30.82,South,180,10.9,10.9,88,0.00,,OVC023,0.00,VWS V14.00,2013-01-09 00:07:00,
2013-01-08 16:12:00,50.5,47.1,30.82,SSE,158,7.8,7.8,88,0.00,,OVC023,0.00,VWS V14.00,2013-01-09 00:12:00,
2013-01-08 16:17:00,50.3,46.9,30.82,SSE,158,7.1,7.1,88,0.00,,OVC023,0.00,VWS V14.00,2013-01-09 00:17:00,
2013-01-08 16:22:00,50.3,46.9,30.82,South,180,10.7,10.7,88,0.00,,OVC023,0.00,VWS V14.00,2013-01-09 00:22:00,
2013-01-08 16:27:00,50.1,46.7,30.82,SSE,158,13.1,13.1,88,0.00,,OVC023,0.00,VWS V14.00,2013-01-09 00:27:00,
2013-01-08 16:32:00,50.1,47.0,30.81,North,0,0.0,10.5,89,0.00,,OVC023,0.00,VWS V14.00,2013-01-09 00:32:00,
2013-01-08 16:37:00,50.1,47.0,30.81,SSE,158,9.1,9.1,89,0.00,,OVC023,0.00,VWS V14.00,2013-01-09 00:37:00,
2013-01-08 16:42:00,50.1,47.0,30.81,SSE,158,7.1,7.1,89,0.00,,-RA,0.00,VWS V14.00,2013-01-09 00:42:00,
2013-01-08 16:47:00,50.1,47.0,30.81,SSE,158,12.5,12.5,89,0.00,,-RA,0.00,VWS V14.00,2013-01-09 00:47:00,
2013-01-08 16:52:00,50.1,47.0,30.81,SSE,158,9.6,9.6,89,0.00,,-RA,0.00,VWS V14.00,2013-01-09 00:52:00,
2013-01-08 16:57:00,50.1,47.0,30.81,SSE,158,6.7,6.7,89,0.00,,-RA,0.00,VWS V14.00,2013-01-09 00:57:00,
2013-01-08 17:02:00,50.1,47.0,30.81,SSE,158,5.3,5.3,89,0.00,,-RA,0.00,VWS V14.00,2013-01-09 01:02:00,
2013-01-08 17:07:00,50.1,47.0,30.81,SE,135,5.8,5.8,89,0.00,,-RA,0.00,VWS V14.00,2013-01-09 01:07:00,
2013-01-08 17:12:00,49.8,46.7,30.81,SE,135,13.1,13.1,89,0.00,,-RA,0.00,VWS V14.00,2013-01-09 01:12:00,
2013-01-08 17:17:00,49.8,46.7,30.81,SSE,158,10.2,10.2,89,0.00,,-RA,0.00,VWS V14.00,2013-01-09 01:17:00,
2013-01-08 17:22:00,49.6,46.5,30.80,North,0,0.0,0.0,89,0.00,,-RA,0.00,VWS V14.00,2013-01-09 01:22:00,
2013-01-08 17:27:00,49.6,46.8,30.80,SE,135,6.7,6.7,90,0.00,,-RA,0.00,VWS V14.00,2013-01-09 01:27:00,
2013-01-08 17:32:00,49.6,46.8,30.80,SSE,158,14.5,14.5,90,0.00,,-RA,0.00,VWS V14.00,2013-01-09 01:32:00,
2013-01-08 17:37:00,49.6,46.8,30.79,SE,135,13.1,13.1,90,0.00,,-RA,0.00,VWS V14.00,2013-01-09 01:37:00,
2013-01-08 17:42:00,49.6,46.8,30.79,SSE,158,13.8,13.8,90,0.00,,OVC023,0.00,VWS V14.00,2013-01-09 01:42:00,
2013-01-08 17:47:00,49.6,46.8,30.79,SE,135,9.1,12.5,90,0.00,,OVC023,0.00,VWS V14.00,2013-01-09 01:47:00,
2013-01-08 17:52:00,49.6,46.8,30.79,SSE,158,14.7,14.7,90,0.00,,OVC023,0.00,VWS V14.00,2013-01-09 01:52:00,
2013-01-08 17:57:00,49.6,46.8,30.79,SSE,158,14.7,14.7,90,0.00,,OVC023,0.00,VWS V14.00,2013-01-09 01:57:00,
2013-01-08 18:02:00,49.6,46.8,30.79,SSW,202,6.2,12.9,90,0.00,,OVC023,0.00,VWS V14.00,2013-01-09 02:02:00,
2013-01-08 18:07:00,49.8,47.0,30.79,SSE,158,17.2,17.2,90,0.00,,OVC023,0.00,VWS V14.00,2013-01-09 02:07:00,
2013-01-08 18:12:00,49.8,47.0,30.78,SE,135,9.6,9.6,90,0.00,,OVC023,0.00,VWS V14.00,2013-01-09 02:12:00,
2013-01-08 18:17:00,49.6,46.8,30.79,SE,135,14.0,14.0,90,0.00,,OVC023,0.00,VWS V14.00,2013-01-09 02:17:00,
2013-01-08 18:22:00,49.8,47.0,30.79,SE,135,16.5,16.5,90,0.00,,OVC023,0.00,VWS V14.00,2013-01-09 02:22:00,
2013-01-08 18:27:00,49.8,47.0,30.78,SSE,158,10.7,10.7,90,0.00,,OVC023,0.00,VWS V14.00,2013-01-09 02:27:00,
2013-01-08 18:32:00,49.6,46.8,30.78,SSE,158,11.1,11.1,90,0.00,,OVC023,0.00,VWS V14.00,2013-01-09 02:32:00,
2013-01-08 18:37:00,49.6,46.8,30.78,SSE,158,10.9,10.9,90,0.00,,OVC023,0.00,VWS V14.00,2013-01-09 02:37:00,
2013-01-08 18:42:00,49.6,46.8,30.78,SSE,158,16.7,16.7,90,0.00,,OVC019,0.00,VWS V14.00,2013-01-09 02:42:00,
2013-01-08 18:47:00,49.8,47.0,30.78,North,0,0.0,0.0,90,0.00,,OVC019,0.00,VWS V14.00,2013-01-09 02:47:00,
2013-01-08 18:52:00,49.8,47.0,30.77,South,180,10.5,10.5,90,0.00,,OVC019,0.00,VWS V14.00,2013-01-09 02:52:00,
2013-01-08 18:57:00,49.8,47.0,30.78,SSE,158,8.5,8.5,90,0.00,,OVC019,0.00,VWS V14.00,2013-01-09 02:57:00,
2013-01-08 19:02:00,49.8,47.0,30.78,South,180,15.2,15.2,90,0.00,,OVC019,0.00,VWS V14.00,2013-01-09 03:02:00,
2013-01-08 19:07:00,49.8,47.0,30.77,SSE,158,12.3,12.3,90,0.00,,-RA,0.00,VWS V14.00,2013-01-09 03:07:00,
2013-01-08 19:12:00,49.8,47.0,30.77,SSE,158,11.4,14.5,90,0.00,,-RA,0.00,VWS V14.00,2013-01-09 03:12:00,
2013-01-08 19:17:00,49.8,47.0,30.76,SSE,158,14.5,14.5,90,0.00,,-RA,0.00,VWS V14.00,2013-01-09 03:17:00,
2013-01-08 19:22:00,49.8,47.0,30.77,SSE,158,6.9,6.9,90,0.00,,-RA,0.00,VWS V14.00,2013-01-09 03:22:00,
2013-01-08 19:27:00,49.8,47.0,30.77,South,180,7.1,7.1,90,0.00,,-RA,0.00,VWS V14.00,2013-01-09 03:27:00,
2013-01-08 19:32:00,49.8,47.0,30.76,SSE,158,13.4,13.4,90,0.00,,-RA,0.00,VWS V14.00,2013-01-09 03:32:00,
2013-01-08 19:37:00,50.1,47.0,30.76,SSE,158,16.7,16.7,89,0.00,,-RA,0.00,VWS V14.00,2013-01-09 03:37:00,
2013-01-08 19:42:00,50.1,46.7,30.76,North,0,0.0,0.0,88,0.00,,-RA,0.00,VWS V14.00,2013-01-09 03:42:00,
2013-01-08 19:47:00,50.3,46.9,30.76,South,180,19.4,19.4,88,0.00,,-RA,0.00,VWS V14.00,2013-01-09 03:47:00,
2013-01-08 19:52:00,50.7,46.7,30.76,North,0,0.0,9.8,86,0.00,,-RA,0.00,VWS V14.00,2013-01-09 03:52:00,
2013-01-08 19:57:00,50.7,46.4,30.76,North,0,0.0,15.4,85,0.00,,-RA,0.00,VWS V14.00,2013-01-09 03:57:00,
2013-01-08 20:02:00,50.9,46.6,30.76,South,180,10.9,14.3,85,0.00,,-RA,0.00,VWS V14.00,2013-01-09 04:02:00,
2013-01-08 20:07:00,51.0,46.3,30.76,North,0,0.0,18.5,84,0.00,,-RA,0.00,VWS V14.00,2013-01-09 04:07:00,
2013-01-08 20:12:00,51.0,46.3,30.75,South,180,20.3,20.3,84,0.00,,-RA,0.00,VWS V14.00,2013-01-09 04:12:00,
2013-01-08 20:17:00,51.4,46.4,30.75,SSW,202,22.5,22.5,83,0.00,,-RA,0.00,VWS V14.00,2013-01-09 04:17:00,
2013-01-08 20:22:00,51.6,46.3,30.75,North,0,0.0,0.0,82,0.00,,-RA,0.00,VWS V14.00,2013-01-09 04:22:00,
2013-01-08 20:27:00,51.6,46.3,30.75,South,180,10.7,13.8,82,0.00,,-RA,0.00,VWS V14.00,2013-01-09 04:27:00,
2013-01-08 20:32:00,51.8,46.2,30.75,South,180,12.7,12.7,81,0.00,,-RA,0.00,VWS V14.00,2013-01-09 04:32:00,
2013-01-08 20:37:00,51.9,46.3,30.74,South,180,22.3,22.3,81,0.00,,-RA,0.00,VWS V14.00,2013-01-09 04:37:00,
2013-01-08 20:42:00,51.9,45.9,30.74,South,180,17.4,17.4,80,0.00,,OVC049,0.00,VWS V14.00,2013-01-09 04:42:00,
2013-01-08 20:47:00,52.1,46.1,30.74,North,0,0.0,14.0,80,0.00,,OVC049,0.00,VWS V14.00,2013-01-09 04:47:00,
2013-01-08 20:52:00,52.1,45.8,30.75,North,0,0.0,0.0,79,0.00,,OVC049,0.00,VWS V14.00,2013-01-09 04:52:00,
2013-01-08 20:57:00,52.3,46.0,30.74,South,180,14.7,23.7,79,0.00,,OVC049,0.00,VWS V14.00,2013-01-09 04:57:00,
2013-01-08 21:00:00,52.3,46.0,30.74,South,180,18.5,18.5,79,0.00,,OVC049,0.00,VWS V14.00,2013-01-09 05:00:00,
2013-01-08 21:03:00,52.5,46.2,30.74,SSE,158,16.7,18.3,79,0.00,,OVC049,0.00,VWS V14.00,2013-01-09 05:03:00,
2013-01-08 21:08:00,52.5,45.8,30.74,South,180,25.0,25.0,78,0.00,,OVC049,0.00,VWS V14.00,2013-01-09 05:08:00,
2013-01-08 21:13:00,52.7,46.0,30.74,South,180,12.0,12.0,78,0.00,,OVC049,0.00,VWS V14.00,2013-01-09 05:13:00,
2013-01-08 21:18:00,52.5,45.8,30.74,South,180,27.5,27.5,78,0.00,,OVC049,0.00,VWS V14.00,2013-01-09 05:18:00,
2013-01-08 21:23:00,52.5,45.8,30.74,South,180,14.0,23.2,78,0.00,,OVC049,0.00,VWS V14.00,2013-01-09 05:23:00,
2013-01-08 21:28:00,52.7,46.0,30.74,South,180,23.2,23.2,78,0.00,,OVC049,0.00,VWS V14.00,2013-01-09 05:28:00,
2013-01-08 21:33:00,52.7,45.7,30.74,SE,135,19.2,19.2,77,0.00,,OVC049,0.00,VWS V14.00,2013-01-09 05:33:00,
2013-01-08 21:38:00,52.7,46.0,30.74,South,180,24.8,24.8,78,0.00,,OVC049,0.00,VWS V14.00,2013-01-09 05:38:00,
2013-01-08 21:43:00,52.7,45.7,30.74,South,180,19.9,19.9,77,0.00,,OVC049,0.00,VWS V14.00,2013-01-09 05:43:00,
2013-01-08 21:48:00,52.7,45.7,30.73,SSE,158,11.8,11.8,77,0.00,,OVC049,0.00,VWS V14.00,2013-01-09 05:48:00,
2013-01-08 21:53:00,52.7,45.7,30.73,SE,135,17.8,17.8,77,0.00,,OVC049,0.00,VWS V14.00,2013-01-09 05:53:00,
2013-01-08 21:58:00,52.5,45.5,30.73,SSE,158,18.3,18.3,77,0.00,,OVC049,0.00,VWS V14.00,2013-01-09 05:58:00,
2013-01-08 22:03:00,52.7,45.4,30.73,SSE,158,9.3,12.3,76,0.00,,OVC049,0.00,VWS V14.00,2013-01-09 06:03:00,
2013-01-08 22:08:00,52.7,45.4,30.73,SSE,158,9.3,12.3,76,0.00,,OVC049,0.00,VWS V14.00,2013-01-09 06:08:00,
2013-01-08 22:13:00,52.8,45.5,30.72,SSE,158,15.2,15.2,76,0.00,,OVC049,0.00,VWS V14.00,2013-01-09 06:13:00,
2013-01-08 22:18:00,52.8,45.1,30.71,North,0,0.0,9.8,75,0.00,,OVC049,0.00,VWS V14.00,2013-01-09 06:18:00,
2013-01-08 22:23:00,52.8,45.1,30.72,North,0,0.0,20.8,75,0.00,,OVC049,0.00,VWS V14.00,2013-01-09 06:23:00,
2013-01-08 22:28:00,52.8,44.8,30.72,SE,135,10.9,13.1,74,0.00,,OVC049,0.00,VWS V14.00,2013-01-09 06:28:00,
2013-01-08 22:33:00,52.8,44.8,30.72,SSE,158,7.3,7.3,74,0.00,,OVC049,0.00,VWS V14.00,2013-01-09 06:33:00,
2013-01-08 22:38:00,52.5,44.8,30.72,SSE,158,11.1,13.1,75,0.00,,OVC049,0.00,VWS V14.00,2013-01-09 06:38:00,
2013-01-08 22:43:00,52.5,44.8,30.71,North,0,0.0,6.4,75,0.00,,OVC049,0.00,VWS V14.00,2013-01-09 06:43:00,
2013-01-08 22:48:00,52.3,44.6,30.70,SSE,158,15.6,21.0,75,0.00,,OVC049,0.00,VWS V14.00,2013-01-09 06:48:00,
2013-01-08 22:53:00,52.1,44.4,30.71,North,0,0.0,10.0,75,0.00,,OVC049,0.00,VWS V14.00,2013-01-09 06:53:00,
2013-01-08 22:58:00,51.9,44.2,30.70,SSE,158,16.3,22.8,75,0.00,,OVC049,0.00,VWS V14.00,2013-01-09 06:58:00,
2013-01-08 23:03:00,51.9,44.2,30.70,SE,135,22.3,22.3,75,0.00,,OVC049,0.00,VWS V14.00,2013-01-09 07:03:00,
2013-01-08 23:08:00,52.1,44.4,30.70,SSE,158,11.4,11.4,75,0.00,,OVC049,0.00,VWS V14.00,2013-01-09 07:08:00,
2013-01-08 23:13:00,51.9,44.2,30.69,SE,135,6.4,6.4,75,0.00,,OVC049,0.00,VWS V14.00,2013-01-09 07:13:00,
2013-01-08 23:18:00,51.9,44.2,30.70,SSE,158,15.4,15.4,75,0.00,,OVC049,0.00,VWS V14.00,2013-01-09 07:18:00,
2013-01-08 23:23:00,51.8,44.1,30.70,SE,135,14.9,23.0,75,0.00,,FEW036,0.00,VWS V14.00,2013-01-09 07:23:00,
2013-01-08 23:28:00,51.9,44.2,30.70,North,0,0.0,0.0,75,0.00,,FEW036,0.00,VWS V14.00,2013-01-09 07:28:00,
2013-01-08 23:33:00,51.9,44.2,30.69,SSE,158,6.2,6.2,75,0.00,,FEW036,0.00,VWS V14.00,2013-01-09 07:33:00,
2013-01-08 23:38:00,51.9,43.9,30.68,SSE,158,10.5,14.7,74,0.00,,FEW036,0.00,VWS V14.00,2013-01-09 07:38:00,
2013-01-08 23:43:00,51.9,43.9,30.69,SE,135,12.5,12.5,74,0.00,,FEW036,0.00,VWS V14.00,2013-01-09 07:43:00,
2013-01-08 23:48:00,51.9,43.9,30.70,SE,135,11.4,15.8,74,0.00,,FEW036,0.00,VWS V14.00,2013-01-09 07:48:00,
2013-01-08 23:53:00,51.9,43.9,30.69,SSE,158,10.5,10.5,74,0.00,,FEW036,0.00,VWS V14.00,2013-01-09 07:53:00,
2013-01-08 23:58:00,51.9,43.9,30.69,SSE,158,16.5,16.5,74,0.00,,FEW036,0.00,VWS V14.00,2013-01-09 07:58:00,